Temp_Advection
nan nan nan nan nan nan nan nan nan nan nan nan nan nan nan nan nan nan nan nan nan nan
nan 1 1 0 0 0 -0 -0 0 -0 -0 0 0 1 1 0 0 0 0 0 0 nan
nan 1 1 0 0 0 0 0 0 -0 0 0 0 0 0 -0 0 0 0 0 0 nan
nan 0 0 0 0 0 0 0 0 0 -0 -0 0 1 1 0 0 0 0 0 -0 nan
nan 0 0 -0 -0 0 0 0 0 0 0 -0 0 0 0 0 -0 0 0 0 0 nan
nan -0 -0 -0 -0 -0 -0 -0 -0 -0 -0 0 0 0 0 -0 -0 -0 0 0 0 nan
nan -0 -0 -0 -0 -0 -0 -0 -0 -0 -0 0 0 0 -0 -0 0 0 0 -0 -0 nan
nan -1 -0 -0 -0 -0 -0 -0 -0 -0 -0 -0 -0 0 0 0 0 0 0 -0 -0 nan
nan -1 -1 -1 -1 -1 -0 -0 -0 -0 0 -0 -0 -0 0 -0 -0 -0 0 0 0 nan
nan -1 -1 -1 -1 -1 -1 -0 -0 -0 -0 -0 -1 -0 -0 -0 0 0 -0 -0 0 nan
nan -1 -1 -1 -1 -0 -0 -1 -1 -1 -0 -0 -0 -1 -1 -0 0 0 0 0 0 nan
nan -1 -1 -1 -1 -1 -1 -1 -1 -1 -1 -1 -0 -0 -0 -0 0 -0 0 0 -0 nan
nan -1 -1 -1 -1 -1 -1 -1 -1 -1 -1 -1 -1 -1 -0 0 0 -0 -0 0 0 nan
nan nan nan nan nan nan nan nan nan nan nan nan nan nan nan nan nan nan nan nan nan nan
Wind_Speed
17 19 18 15 13 11 11 14 16 21 22 25 24 22 27 26 27 30 36 35 38 35
15 14 14 13 12 11 9 10 12 16 18 24 24 28 26 26 28 29 32 34 34 35
15 12 9 9 13 13 15 14 15 18 21 21 21 26 28 29 30 30 30 31 34 33
17 13 9 6 5 9 14 16 16 16 18 23 23 24 26 30 27 29 30 32 34 33
17 14 10 7 4 1 4 13 18 16 17 19 21 22 23 24 30 30 30 33 33 34
19 15 12 9 6 5 3 4 7 14 19 20 22 23 25 26 26 28 29 29 32 36
19 17 14 13 9 6 6 7 8 10 12 20 21 22 24 25 28 29 31 32 34 37
19 17 15 13 11 10 7 7 10 10 11 14 20 23 25 26 27 30 31 32 36 37
17 16 17 15 14 11 10 9 9 11 12 13 14 20 23 24 27 30 31 32 32 32
19 16 16 17 16 14 13 12 12 10 12 14 16 16 20 24 27 27 30 32 35 34
21 18 18 18 16 16 16 15 16 13 12 14 15 19 19 22 25 27 29 31 29 32
24 22 21 20 19 18 18 17 17 17 15 14 14 17 19 21 23 25 26 28 26 24
26 24 22 22 21 19 18 20 19 18 17 14 13 16 19 22 22 25 24 23 22 22
26 23 21 22 20 19 20 21 20 19 17 15 12 15 18 18 21 21 21 21 20 19
Wind_Direction
169 156 152 163 176 197 216 209 214 218 221 223 218 221 230 232 232 234 233 234 238 238
126 163 177 191 199 205 215 231 221 220 220 227 225 223 223 228 227 232 237 239 236 235
70 92 130 176 205 213 220 223 228 233 231 233 233 230 233 229 228 236 232 237 236 246
51 62 74 98 173 211 223 226 229 228 236 237 235 238 228 231 234 233 241 245 247 248
31 47 53 46 48 110 215 226 224 225 230 239 239 237 237 232 233 237 237 239 241 246
18 24 28 31 26 359 310 267 239 235 231 230 245 247 248 244 242 245 246 253 254 250
348 4 11 7 2 2 341 308 266 255 246 236 236 246 241 251 244 245 252 257 255 255
343 340 346 353 354 342 334 324 294 276 260 253 242 234 240 249 253 254 258 260 257 256
331 329 330 336 339 339 329 319 317 287 283 271 265 250 244 255 255 259 262 261 256 255
323 318 318 318 328 331 329 323 315 309 287 288 268 263 248 251 253 259 262 264 261 261
318 310 306 310 319 319 321 320 317 310 298 285 282 266 262 260 259 261 258 259 259 260
310 305 303 303 306 313 312 312 315 312 301 286 279 273 270 269 267 262 263 259 259 259
309 303 300 297 301 304 305 307 311 309 307 296 277 275 266 267 274 266 265 268 260 260
303 299 293 291 293 296 299 300 303 304 307 299 286 290 287 276 273 272 268 269 267 267
Height
1427 1430 1433 1437 1440 1445 1448 1452 1456 1460 1463 1467 1471 1475 1479 1482 1486 1490 1494 1496 1499 1503
1424 1429 1432 1435 1439 1442 1445 1449 1452 1455 1459 1463 1466 1471 1474 1476 1479 1484 1487 1489 1493 1497
1425 1427 1430 1433 1436 1439 1442 1445 1448 1451 1454 1457 1461 1464 1467 1470 1474 1478 1480 1484 1487 1490
1427 1428 1429 1431 1434 1436 1439 1441 1444 1447 1449 1452 1455 1458 1460 1464 1467 1471 1475 1479 1482 1484
1429 1427 1429 1431 1432 1434 1435 1437 1439 1442 1444 1447 1449 1452 1455 1458 1461 1464 1468 1472 1475 1476
1432 1431 1431 1431 1431 1432 1433 1434 1434 1436 1438 1441 1444 1446 1449 1452 1455 1458 1461 1464 1466 1469
1433 1430 1431 1431 1430 1430 1430 1430 1432 1432 1433 1435 1437 1440 1443 1446 1449 1451 1453 1455 1457 1460
1430 1429 1431 1429 1428 1428 1427 1428 1429 1428 1428 1429 1431 1433 1437 1439 1441 1443 1444 1445 1447 1450
1431 1429 1428 1428 1428 1427 1426 1425 1425 1424 1423 1424 1426 1428 1429 1432 1433 1434 1435 1437 1438 1439
1428 1428 1427 1427 1424 1423 1422 1421 1421 1420 1419 1420 1421 1422 1422 1424 1424 1426 1426 1427 1428 1428
1424 1423 1423 1421 1419 1420 1418 1417 1416 1415 1414 1415 1416 1416 1416 1416 1417 1417 1417 1418 1418 1418
1419 1417 1416 1415 1416 1415 1414 1413 1411 1411 1410 1410 1411 1410 1410 1409 1409 1409 1409 1409 1410 1410
1412 1411 1410 1411 1410 1411 1410 1408 1407 1406 1407 1406 1405 1404 1404 1403 1402 1401 1401 1401 1401 1403
1409 1407 1407 1407 1407 1405 1405 1404 1404 1403 1402 1401 1400 1398 1397 1397 1396 1394 1394 1395 1395 1396